Skip Page Navigation
NASA JPL Caltech
NASA Logo - Jet Propulsion Laboratory + View the NASA Portal
+ Center for Near-Earth Object Studies
JPL Home Earth Solar System Stars & Galaxies Technology
JPL Solar System Dynamics
BODIES ORBITS EPHEMERIDES TOOLS PHYSICAL DATA DISCOVERY FAQ SITE MAP
JPL Small-Body Database Browser
Search: [ help ]  
52343 (1992 WX1)
Classification: Main-belt Asteroid          SPK-ID: 2052343
Ephemeris | Orbit Diagram | Orbital Elements | Mission Design | Physical Parameters | Discovery Circumstances ]

[ show orbit diagram ]
Orbital Elements at Epoch 2459000.5 (2020-May-31.0) TDB
Reference: JPL 22 (heliocentric ecliptic J2000)
 Element Value Uncertainty (1-sigma)   Units 
e .1273264654087268 2.6437e-08  
a 2.17916837481971 8.1145e-09 au
q 1.901702568123437 5.8651e-08 au
i 3.10807586176629 3.6487e-06 deg
node 285.6600125807308 5.7008e-05 deg
peri 101.5380647918227 5.9707e-05 deg
M 221.4809556261515 2.0217e-05 deg
tp 2459452.607377806319
(2021-Aug-26.10737781)
6.7646e-05 TDB
period 1174.99118439632
3.22
6.5629e-06
1.797e-08
d
yr
n .30638527742228 1.7113e-09 deg/d
Q 2.456634181515983 9.1477e-09 au
  Orbit Determination Parameters
   # obs. used (total)      1211  
   data-arc span      24390 days (66.78 yr)  
   first obs. used      1953-09-07  
   last obs. used      2020-06-17  
   planetary ephem.      DE431  
   SB-pert. ephem.      SB431-N16  
   condition code      0  
   norm. resid. RMS      .52318  
   source      ORB  
   producer      Otto Matic  
   solution date      2020-Jun-23 22:03:33  

Additional Information
 Earth MOID = .909058 au 
 Jupiter MOID = 2.96847 au 
 T_jup = 3.670 
[ show covariance matrix ]

Ephemeris | Orbit Diagram | Orbital Elements | Mission Design | Physical Parameters | Discovery Circumstances ]

Physical Parameter Table
Parameter Symbol Value Units Sigma Reference Notes
absolute magnitude H 15.2   n/a MPO412527  
diameter diameter 2.411 km 0.311 urn:nasa:pds:neowise_diameters_albedos::2.0[mainbelt] (http://adsabs.harvard.edu/abs/2011ApJ...741...68M)  
geometric albedo albedo 0.277   0.079 urn:nasa:pds:neowise_diameters_albedos::2.0[mainbelt] (http://adsabs.harvard.edu/abs/2011ApJ...741...68M)  

52343 (1992 WX1)          Discovered 1992-Nov-18 by Ueda, S., Kaneda, H. at Kushiro
Reference: 20030216/Numbers.arcLast Updated: 2004-04-19

Alternate Designations
 1992 WX1 = 1995 VC2 
Ephemeris | Orbit Diagram | Orbital Elements | Mission Design | Physical Parameters | Discovery Circumstances ]
ABOUT SSD CREDITS/AWARDS PRIVACY/COPYRIGHT GLOSSARY LINKS
FirstGov 2020-Oct-25 00:53 UT
(server date/time)  
NASA Home Page
Site Manager:   Ryan S. Park
Webmaster  Alan B. Chamberlin